{"data":{"norad_id":63308,"epoch":"2026-09-20T19:18:25.324128Z","epoch_age_seconds":132469,"freshness":"FRESH","line1":"1 63308U 25057B   26263.80445977  .00126851  00000+0  97661-3 0  9996","line2":"2 63308  43.0033 168.4867 0003006 309.6085  50.4517 15.70847889 87863","mean_motion":15.70847889,"eccentricity":0.0003006,"inclination_deg":43.0033,"raan_deg":168.4867,"arg_perigee_deg":309.6085,"mean_anomaly_deg":50.4517,"bstar":0.00097661,"rev_number":8786,"period_min":91.670238097764,"perigee_km":354.44808980474,"apogee_km":358.49693704421,"semimajor_km":6734.6095134245,"source":"CELESTRAK","updated_at":"2026-09-21T09:00:34.967110Z"}}